Location: *
(60.1759°S, 155.0663°W)
Time: 15:29:12
(UTC+00:00)

Cosmos 1174 - Pass Details

Date: 17 September 2019
Orbit: 371 x 1149 km, 66.1° (Epoch: 21 October)

Event Time Altitude Azimuth Distance (km) Brightness Sun altitude
Exits shadow 15:05:39 11° 312° (NW) 1,768 5.9 -10.4°
Maximum altitude 15:09:36 83° 38° (NE) 667 4.2 -10.0°
Drops below altitude 10° 15:14:56 10° 126° (SE) 2,354 8.2 -9.3°
Sets 15:17:40 0° 126° (SE) 3,427 9.2 -9.0°
